CZ-6A R/B, 60214

Orbit data source: Space-Track

CZ-6A R/B, 60214 is space debris in SSO originally from a launch on Thu, 04 Jul 2024 UTC launched from the Taiyaun Space Center, China (TSC). Debris objects in space refer to the collection of defunct objects orbiting the Earth. Examples of debris include non-operational satellites, rocket bodies, and fragments generated from explosions, collisions, or faulty payload assembly.

Loading next visibility...
Identifier
60214, 2024-126D
Orbit
SSO
Country
Flag of CNCN / PRC
Related business
Manufacturer
SAST
Mission
Spacecraft
Bus & Motor
CZ-6A STAGE 2, YF-115
Mass
~6,000 kg wet, ~6,000 kg dry
Launch date (UTC)
2024-07-04 (1 year ago)
Launch vehicle
Unknown
Launch site
Taiyaun Space Center, China (TSC)
Object type
Payload
Rocket body
Debris
Shape & HBR
Unknown
Radar Cross Section
Large (>1 m²)

Expand to show TLE details & history
Last TLE update: 15 hours ago

TLE from 15 hours ago
0 CZ-6A R/B
1 60214U 24126D   25261.05081349  .00004184  00000-0  23836-3 0  9996
2 60214  97.8059 281.2133 0070787 332.9498  26.8049 15.11270773 66296
Epoch: 2025-09-18T01:13Z
TLE epoch observation values (Epoch: 2025-09-18T01:13:10.285Z)
Latitude
-0°
Longitude
-94.29752°
Altitude
491.791 km
Speed
7.643 km/s
True Right ascension
18h 44m 51s
True Declination
0° 00' 00"
Sunlit
Object was in daylight at epoch
Visualization orbit readout
Latitude
Unknown
Longitude
Unknown
Altitude
Unknown
Speed
Unknown
Apparent Right ascension
Unknown
Apparent Declination
Unknown
Sunlit
N/A
Visualization observer readout
Local Sidereal Time
08:52:56
Azimuth
Unknown
Elevation
Unknown
Doppler factor
Unknown
Orbital elements
Apogee altitude
578.214 km
Perigee altitude
480.422 km
Semi-major axis
6,907.455 km
Eccentricity
0.00708
Inclination
97.8059°
RAAN
281.2133°
Arg. of periapsis
332.9498°
True anomaly
27.1736°
Mean anomaly
26.8049°
Eccentric anomaly
26.98896°
Mean motion
3.78065 °/min
Orbital period
95.22 mins
BSTAR
0.00023836
Loading maneuver chart data...
Computing Atmospheric mass density...
Loading historical data...
Loading historical data...
Loading historical data...
Loading historical data...
Loading historical data...
Loading historical data...
Loading historical data...
Other satellites on launch #126 in the year 2024 (2024-07-04 UTC)

Documentation

Showing up to 5 results
|